KC0AFB Weather Reports


time (UTC)temp
C
wind
direction
speed
KPH
gust
KPH
rain 1hr
cm
rain 24hr
cm
rain mn
cm
humidity
%
barometer
mb
20260509050620 7 351 1.6 1.6 0.18 0.03 0.03 89 1008.9
20260509050116 7 324 3.2 4.8 0.00 0.03 0.03 88 1008.9
20260509045614 8 346 1.6 3.2 0.13 0.03 0.03 87 1008.9
20260509045111 8 3 8.0 9.7 0.13 0.03 0.03 87 1009.2
20260509044608 8 358 8.0 9.7 0.00 0.00 0.00 85 1009.0
20260509044105 8 7 6.4 8.0 0.00 0.00 0.00 83 1009.2
20260509043601 8 35 6.4 8.0 0.00 0.00 0.00 81 1008.5
20260509043057 9 15 6.4 9.7 0.00 0.00 0.00 78 1008.5
20260509042553 9 35 11.3 14.5 0.00 0.00 0.00 75 1008.2
20260509042050 9 355 11.3 11.3 0.00 0.00 0.00 74 1008.2
20260509041547 9 21 8.0 9.7 0.00 0.00 0.00 74 1008.1
20260509041044 10 31 8.0 9.7 0.00 0.00 0.00 73 1008.3
20260509040542 10 27 11.3 17.7 0.00 0.00 0.00 71 1007.9
20260509040039 10 43 11.3 14.5 0.00 0.00 0.00 70 1007.8
20260509035536 10 51 14.5 17.7 0.00 0.00 0.00 70 1007.7
20260509035032 10 52 19.3 22.5 0.00 0.00 0.00 69 1007.5
20260509034531 10 44 12.9 16.1 0.00 0.00 0.00 68 1007.7
20260509034027 10 51 17.7 20.9 0.00 0.00 0.00 67 1007.6
20260509033524 10 27 19.3 22.5 0.00 0.00 0.00 66 1007.6
20260509033021 11 30 20.9 27.4 0.00 0.00 0.00 65 1007.5
20260509032519 11 1 24.1 29.0 0.00 0.00 0.00 63 1007.6
20260509032016 12 8 17.7 25.7 0.00 0.00 0.00 64 1006.9
20260509031513 13 19 22.5 27.4 0.00 0.00 0.00 62 1006.8
20260509031010 13 359 14.5 14.5 0.00 0.00 0.00 58 1006.5
20260509030508 13 16 16.1 20.9 0.00 0.00 0.00 56 1006.4
20260509030005 13 0 12.9 20.9 0.00 0.00 0.00 55 1006.2
20260509025500 14 326 14.5 17.7 0.00 0.00 0.00 54 1006.2
20260509024950 14 346 19.3 24.1 0.00 0.00 0.00 53 1005.9
20260509024447 15 317 16.1 22.5 0.00 0.00 0.00 52 1005.8
20260509023944 15 318 16.1 20.9 0.00 0.00 0.00 52 1005.5
20260509023441 14 3 17.7 25.7 0.00 0.00 0.00 53 1005.5
20260509022938 14 334 24.1 29.0 0.00 0.00 0.00 54 1005.2
20260509022435 15 358 20.9 24.1 0.00 0.00 0.00 53 1005.2
20260509021932 15 333 25.7 32.2 0.00 0.00 0.00 52 1005.3
20260509021429 16 353 24.1 29.0 0.00 0.00 0.00 47 1005.1
20260509020926 17 302 24.1 27.4 0.00 0.00 0.00 37 1004.5
20260509020424 18 279 14.5 20.9 0.00 0.00 0.00 38 1004.5
20260509015921 16 277 14.5 17.7 0.00 0.00 0.00 39 1004.6
20260509015420 16 298 8.0 9.7 0.00 0.00 0.00 42 1004.6
20260509014915 16 295 6.4 8.0 0.00 0.00 0.00 41 1004.1
20260509014407 16 301 3.2 4.8 0.00 0.00 0.00 42 1004.3
20260509013904 16 232 6.4 9.7 0.00 0.00 0.00 41 1004.0
20260509013401 16 245 4.8 4.8 0.00 0.00 0.00 41 1004.2
20260509012856 16 251 6.4 8.0 0.00 0.00 0.00 41 1004.1
20260509012353 16 187 4.8 4.8 0.00 0.00 0.00 42 1004.3
20260509011850 16 263 3.2 3.2 0.00 0.00 0.00 42 1004.3
20260509011348 17 286 3.2 3.2 0.00 0.00 0.00 40 1004.3
20260509010846 17 278 3.2 3.2 0.00 0.00 0.00 40 1004.2
20260509010343 17 299 6.4 8.0 0.00 0.00 0.00 39 1004.4
20260509005839 17 280 4.8 4.8 0.00 0.00 0.00 40 1004.4
20260509005338 17 292 4.8 4.8 0.00 0.00 0.00 40 1004.4
20260509004838 17 242 3.2 3.2 0.00 0.00 0.00 39 1004.6
20260509004334 17 297 0.0 3.2 0.00 0.00 0.00 39 1004.7
20260509003832 18 282 6.4 9.7 0.00 0.00 0.00 37 1005.0
20260509003330 18 287 8.0 11.3 0.00 0.00 0.00 36 1004.8
20260509002826 19 297 12.9 17.7 0.00 0.00 0.00 34 1004.9
20260509002324 19 258 8.0 9.7 0.00 0.00 0.00 35 1004.8
20260509001822 19 270 17.7 27.4 0.00 0.00 0.00 34 1005.0
20260509001317 20 263 17.7 20.9 0.00 0.00 0.00 32 1004.9
20260509000815 20 302 25.7 35.4 0.00 0.00 0.00 31 1004.8
20260509000313 20 303 24.1 29.0 0.00 0.00 0.00 32 1004.9
20260508235809 20 281 14.5 17.7 0.00 0.00 0.00 33 1005.2
20260508235307 20 295 12.9 16.1 0.00 0.00 0.00 32 1005.1
20260508234803 20 278 9.7 12.9 0.00 0.00 0.00 33 1005.2
20260508234259 20 282 12.9 14.5 0.00 0.00 0.00 32 1005.2
20260508233753 20 287 9.7 12.9 0.00 0.00 0.00 33 1005.6
20260508233251 20 293 16.1 16.1 0.00 0.00 0.00 32 1005.2
20260508232748 20 302 14.5 17.7 0.00 0.00 0.00 33 1005.5
20260508232244 20 268 12.9 14.5 0.00 0.00 0.00 33 1005.1
20260508231743 20 282 8.0 11.3 0.00 0.00 0.00 33 1005.7
20260508231239 19 289 8.0 11.3 0.00 0.00 0.00 34 1005.6
20260508230736 20 275 11.3 16.1 0.00 0.00 0.00 33 1005.8
20260508230232 20 268 11.3 14.5 0.00 0.00 0.00 33 1005.7
20260508225730 20 269 17.7 22.5 0.00 0.00 0.00 31 1006.0
20260508225226 20 273 12.9 14.5 0.00 0.00 0.00 33 1005.7
20260508224724 21 295 22.5 32.2 0.00 0.00 0.00 31 1006.0
20260508224221 21 330 14.5 17.7 0.00 0.00 0.00 30 1005.9
20260508223719 21 206 12.9 14.5 0.00 0.00 0.00 31 1006.1
20260508223216 21 278 12.9 14.5 0.00 0.00 0.00 33 1006.1
20260508222713 20 253 17.7 20.9 0.00 0.00 0.00 31 1006.3
20260508222211 20 308 17.7 20.9 0.00 0.00 0.00 32 1006.5
20260508221707 20 284 14.5 16.1 0.00 0.00 0.00 31 1006.3
20260508221203 21 277 12.9 16.1 0.00 0.00 0.00 31 1006.2
20260508220659 21 289 16.1 20.9 0.00 0.00 0.00 31 1006.5
20260508220156 21 297 17.7 22.5 0.00 0.00 0.00 30 1006.6
20260508215652 20 314 20.9 29.0 0.00 0.00 0.00 31 1006.8
20260508215149 20 303 11.3 14.5 0.00 0.00 0.00 32 1006.7
20260508214646 20 294 16.1 22.5 0.00 0.00 0.00 33 1007.0
20260508214143 20 322 19.3 22.5 0.00 0.00 0.00 33 1007.1
20260508213640 21 257 17.7 20.9 0.00 0.00 0.00 32 1007.0
20260508213136 21 313 12.9 16.1 0.00 0.00 0.00 33 1007.2
20260508212633 20 305 17.7 20.9 0.00 0.00 0.00 32 1007.1
20260508212129 21 286 9.7 12.9 0.00 0.00 0.00 36 1007.2
20260508211624 20 294 16.1 20.9 0.00 0.00 0.00 34 1007.5
20260508211121 20 289 19.3 25.7 0.00 0.00 0.00 34 1007.4
20260508210618 20 312 17.7 22.5 0.00 0.00 0.00 34 1007.7
20260508210115 21 322 17.7 20.9 0.00 0.00 0.00 33 1007.6
20260508205612 21 299 17.7 22.5 0.00 0.00 0.00 34 1007.6
20260508205108 20 292 24.1 33.8 0.00 0.00 0.00 34 1007.7
20260508204604 20 258 17.7 20.9 0.00 0.00 0.00 35 1007.8
20260508204100 20 298 19.3 24.1 0.00 0.00 0.00 34 1007.9
20260508203551 20 298 20.9 24.1 0.00 0.00 0.00 34 1007.8
20260508203047 18 344 14.5 17.7 0.00 0.00 0.00 34 1008.0
20260508202544 19 325 17.7 22.5 0.00 0.00 0.00 34 1008.1
20260508202041 18 276 16.1 17.7 0.00 0.00 0.00 36 1008.0
20260508201538 18 313 12.9 14.5 0.00 0.00 0.00 36 1008.1
20260508201034 19 303 16.1 16.1 0.00 0.00 0.00 35 1008.1
20260508200532 20 288 20.9 24.1 0.00 0.00 0.00 34 1008.3
20260508200027 20 326 17.7 22.5 0.00 0.00 0.00 35 1008.2
20260508195524 19 10 14.5 16.1 0.00 0.00 0.00 35 1008.2
20260508195020 20 309 14.5 14.5 0.00 0.00 0.00 35 1008.3
20260508194518 20 268 20.9 27.4 0.00 0.00 0.00 36 1008.2
20260508194015 20 297 16.1 25.7 0.00 0.00 0.00 36 1008.4
20260508193511 19 303 17.7 27.4 0.00 0.00 0.00 35 1008.3
20260508193008 18 318 22.5 29.0 0.00 0.00 0.00 37 1008.3
20260508192504 19 292 19.3 22.5 0.00 0.00 0.00 36 1008.4
20260508192001 18 299 12.9 16.1 0.00 0.00 0.00 36 1008.5
20260508191458 18 320 9.7 14.5 0.00 0.00 0.00 39 1008.6
20260508190955 18 304 19.3 22.5 0.00 0.00 0.00 37 1008.6
20260508190452 18 5 11.3 14.5 0.00 0.00 0.00 38 1008.6
20260508185948 18 338 17.7 22.5 0.00 0.00 0.00 37 1008.6
20260508185446 18 322 27.4 32.2 0.00 0.00 0.00 35 1008.8
20260508184943 19 350 14.5 16.1 0.00 0.00 0.00 37 1008.8
20260508184441 19 313 12.9 14.5 0.00 0.00 0.00 37 1008.8
20260508183937 18 306 16.1 22.5 0.00 0.00 0.00 36 1008.8
20260508183434 18 323 12.9 20.9 0.00 0.00 0.00 38 1008.9
20260508182929 18 329 20.9 27.4 0.00 0.00 0.00 37 1008.7
20260508182426 18 290 22.5 25.7 0.00 0.00 0.00 36 1008.8
20260508181921 18 39 16.1 17.7 0.00 0.00 0.00 37 1008.9
20260508181418 18 326 24.1 29.0 0.00 0.00 0.00 36 1008.7
20260508180916 18 339 17.7 24.1 0.00 0.00 0.00 36 1008.9
20260508180412 18 3 16.1 20.9 0.00 0.00 0.00 36 1008.8
20260508175908 18 303 16.1 20.9 0.00 0.00 0.00 36 1008.9
20260508175405 18 2 30.6 37.0 0.00 0.00 0.00 34 1009.0
20260508174903 18 12 14.5 16.1 0.00 0.00 0.00 36 1009.0
20260508174400 18 344 22.5 29.0 0.00 0.00 0.00 36 1009.0
20260508173856 18 8 24.1 29.0 0.00 0.00 0.00 36 1009.0
20260508173354 18 320 25.7 37.0 0.00 0.00 0.00 36 1009.0
20260508172849 18 314 17.7 24.1 0.00 0.00 0.00 36 1009.3
20260508172347 17 294 16.1 20.9 0.00 0.00 0.00 37 1008.9
20260508171843 17 313 24.1 29.0 0.00 0.00 0.00 36 1009.0
20260508171339 17 338 12.9 16.1 0.00 0.00 0.00 36 1009.3
20260508170836 17 356 17.7 17.7 0.00 0.00 0.00 37 1009.6
20260508170335 17 293 20.9 27.4 0.00 0.00 0.00 36 1009.4
20260508165831 17 317 14.5 20.9 0.00 0.00 0.00 37 1009.5
20260508165328 17 327 17.7 24.1 0.00 0.00 0.00 37 1009.5
20260508164824 17 356 17.7 22.5 0.00 0.00 0.00 37 1009.4
20260508164321 17 291 14.5 20.9 0.00 0.00 0.00 38 1009.5
20260508163819 17 288 16.1 27.4 0.00 0.00 0.00 39 1009.3
20260508163316 17 306 16.1 20.9 0.00 0.00 0.00 39 1009.2
20260508162812 16 3 11.3 14.5 0.00 0.00 0.00 39 1009.2
20260508162309 16 298 12.9 16.1 0.00 0.00 0.00 40 1009.2
20260508161806 16 312 14.5 17.7 0.00 0.00 0.00 40 1009.0
20260508161303 16 314 11.3 11.3 0.00 0.00 0.00 40 1009.3
20260508160801 16 351 12.9 20.9 0.00 0.00 0.00 41 1009.3
20260508160259 16 314 25.7 33.8 0.00 0.00 0.00 40 1009.3
20260508155755 16 303 19.3 22.5 0.00 0.00 0.00 40 1009.2
20260508155252 15 316 12.9 16.1 0.00 0.00 0.00 42 1009.4
20260508154749 15 353 19.3 24.1 0.00 0.00 0.00 41 1008.9
20260508154247 15 307 19.3 22.5 0.00 0.00 0.00 40 1009.2
20260508153743 15 345 19.3 22.5 0.00 0.00 0.00 41 1008.9
20260508153241 15 319 14.5 16.1 0.00 0.00 0.00 42 1009.4
20260508152737 15 332 19.3 24.1 0.00 0.00 0.00 41 1009.3
20260508152233 15 292 14.5 17.7 0.00 0.00 0.00 41 1009.3
20260508151729 15 300 17.7 20.9 0.00 0.00 0.00 41 1009.3
20260508151226 14 3 17.7 20.9 0.00 0.00 0.00 40 1009.4
20260508150723 15 340 19.3 24.1 0.00 0.00 0.00 40 1009.2
20260508150219 15 348 17.7 25.7 0.00 0.00 0.00 40 1009.0
20260508145715 15 348 9.7 11.3 0.00 0.00 0.00 41 1009.3
20260508145211 14 327 12.9 16.1 0.00 0.00 0.00 42 1009.2
20260508144709 13 318 14.5 16.1 0.00 0.00 0.00 41 1009.3
20260508144207 14 285 8.0 11.3 0.00 0.00 0.00 42 1009.0
20260508143704 13 304 11.3 12.9 0.00 0.00 0.00 42 1009.2
20260508143201 13 300 14.5 16.1 0.00 0.00 0.00 41 1009.3
20260508142657 13 294 9.7 11.3 0.00 0.00 0.00 40 1009.0
20260508142154 13 310 9.7 11.3 0.00 0.00 0.00 41 1008.8
20260508141650 13 326 8.0 9.7 0.00 0.00 0.00 42 1008.9
20260508141148 12 305 4.8 4.8 0.00 0.00 0.00 45 1009.2
20260508140646 12 292 8.0 11.3 0.00 0.00 0.00 45 1009.0
20260508140142 11 265 4.8 4.8 0.00 0.00 0.00 47 1008.9
20260508135638 11 246 4.8 8.0 0.00 0.00 0.00 45 1008.7
20260508135134 11 301 9.7 11.3 0.00 0.00 0.00 44 1008.7
20260508134631 10 314 3.2 3.2 0.00 0.00 0.00 48 1008.6
20260508134128 10 298 4.8 4.8 0.00 0.00 0.00 48 1008.7
20260508133624 9 297 4.8 8.0 0.00 0.00 0.00 50 1008.6
20260508133122 8 300 6.4 9.7 0.00 0.00 0.00 49 1008.4
20260508132620 8 318 6.4 8.0 0.00 0.00 0.00 50 1008.2
20260508132116 8 296 4.8 4.8 0.00 0.00 0.00 50 1008.3
20260508131612 8 199 4.8 4.8 0.00 0.00 0.00 51 1008.0
20260508131109 8 204 3.2 4.8 0.00 0.00 0.00 53 1007.8
20260508130605 8 224 3.2 3.2 0.00 0.00 0.00 51 1008.2
20260508125557 7 133 0.0 0.0 0.00 0.00 0.00 52 1007.9
20260508125056 7 177 1.6 1.6 0.00 0.00 0.00 50 1007.8
20260508124553 7 69 0.0 1.6 0.00 0.00 0.00 50 1008.0
20260508124050 7 66 1.6 1.6 0.00 0.00 0.00 51 1007.9
20260508123549 6 42 1.6 1.6 0.00 0.00 0.00 51 1007.8
20260508123045 6 59 0.0 0.0 0.00 0.00 0.00 50 1007.6
20260508122541 5 70 0.0 0.0 0.00 0.00 0.00 50 1007.6
20260508122039 5 88 0.0 0.0 0.00 0.00 0.00 52 1007.5
20260508121537 5 69 0.0 0.0 0.00 0.00 0.00 52 1007.6
20260508121035 5 64 0.0 0.0 0.00 0.00 0.00 56 1007.6
20260508120532 5 113 0.0 0.0 0.00 0.00 0.00 56 1007.6
20260508120030 5 101 0.0 0.0 0.00 0.00 0.00 56 1007.7
20260508115527 5 88 0.0 0.0 0.00 0.00 0.00 60 1007.7
20260508115024 5 143 3.2 3.2 0.00 0.00 0.00 53 1007.6
20260508114521 5 79 0.0 0.0 0.00 0.00 0.00 57 1007.6
20260508114017 5 48 1.6 1.6 0.00 0.00 0.00 53 1007.6
20260508113515 5 22 3.2 3.2 0.00 0.00 0.00 58 1007.8
20260508113012 5 263 1.6 1.6 0.00 0.00 0.00 53 1007.7
20260508112508 5 45 1.6 1.6 0.00 0.00 0.00 51 1007.8
20260508112005 5 19 1.6 1.6 0.00 0.00 0.00 52 1008.2
20260508111502 4 63 0.0 1.6 0.00 0.00 0.00 56 1007.8
20260508110959 5 139 0.0 1.6 0.00 0.00 0.00 54 1007.8
20260508110457 5 41 0.0 1.6 0.00 0.00 0.00 50 1007.9
20260508105956 5 352 4.8 4.8 0.00 0.00 0.00 49 1007.8
20260508105453 5 33 0.0 0.0 0.00 0.00 0.00 53 1008.0
20260508104950 5 25 0.0 0.0 0.00 0.00 0.00 51 1007.9
20260508104448 5 50 0.0 0.0 0.00 0.00 0.00 50 1007.9
20260508103944 5 66 0.0 0.0 0.00 0.00 0.00 50 1007.9
20260508103442 5 62 1.6 1.6 0.00 0.00 0.00 54 1007.7
20260508102938 5 69 1.6 1.6 0.00 0.00 0.00 55 1007.7
20260508102437 5 64 1.6 1.6 0.00 0.00 0.00 54 1008.1
20260508101933 5 92 1.6 1.6 0.00 0.00 0.00 53 1007.9
20260508101431 6 92 0.0 0.0 0.00 0.00 0.00 52 1007.8
20260508100928 6 61 0.0 0.0 0.00 0.00 0.00 50 1007.9
20260508100427 5 13 4.8 4.8 0.00 0.00 0.00 49 1008.1
20260508095923 5 28 3.2 3.2 0.00 0.00 0.00 51 1008.1
20260508095421 5 356 3.2 3.2 0.00 0.00 0.00 51 1008.2
20260508094917 5 63 0.0 0.0 0.00 0.00 0.00 50 1008.1
20260508094414 5 77 0.0 0.0 0.00 0.00 0.00 54 1008.1
20260508093910 6 76 0.0 0.0 0.00 0.00 0.00 50 1008.0
20260508093408 5 76 0.0 0.0 0.00 0.00 0.00 47 1008.1
20260508092905 5 76 0.0 1.6 0.00 0.00 0.00 49 1008.2
20260508092403 5 76 0.0 0.0 0.00 0.00 0.00 49 1008.0
20260508091902 5 64 1.6 1.6 0.00 0.00 0.00 50 1007.9
20260508091358 5 58 1.6 1.6 0.00 0.00 0.00 50 1008.1
20260508090855 5 34 1.6 1.6 0.00 0.00 0.00 50 1008.1
20260508090354 6 34 1.6 1.6 0.00 0.00 0.00 46 1008.2
20260508085849 7 15 1.6 3.2 0.00 0.00 0.00 44 1008.0
20260508085346 6 58 1.6 1.6 0.00 0.00 0.00 44 1008.2
20260508084843 6 60 1.6 1.6 0.00 0.00 0.00 46 1008.1
20260508084339 5 59 3.2 3.2 0.00 0.00 0.00 50 1008.1
20260508083837 5 74 0.0 0.0 0.00 0.00 0.00 50 1008.0
20260508083335 5 68 1.6 1.6 0.00 0.00 0.00 51 1008.0
20260508082834 5 81 0.0 1.6 0.00 0.00 0.00 52 1008.3
20260508082332 6 60 0.0 1.6 0.00 0.00 0.00 47 1008.4
20260508081829 5 48 1.6 1.6 0.00 0.00 0.00 47 1008.5
20260508081326 5 59 3.2 3.2 0.00 0.00 0.00 48 1008.4
20260508080823 5 65 1.6 3.2 0.00 0.00 0.00 49 1008.5
20260508080321 6 60 3.2 3.2 0.00 0.00 0.00 47 1008.7
20260508075817 6 55 3.2 3.2 0.00 0.00 0.00 47 1008.7
20260508075314 6 47 1.6 1.6 0.00 0.00 0.00 47 1008.7
20260508074812 6 51 1.6 1.6 0.00 0.00 0.00 46 1008.7
20260508074309 7 32 3.2 3.2 0.00 0.00 0.00 43 1008.8
20260508073806 7 7 3.2 3.2 0.00 0.00 0.00 43 1008.6
20260508073304 7 10 3.2 3.2 0.00 0.00 0.00 43 1008.7
20260508072800 6 41 1.6 1.6 0.00 0.00 0.00 45 1008.5
20260508072257 7 56 1.6 1.6 0.00 0.00 0.00 46 1008.6
20260508071754 6 55 1.6 1.6 0.00 0.00 0.00 45 1008.7
20260508071252 6 59 3.2 3.2 0.00 0.00 0.00 46 1008.6
20260508070749 7 73 0.0 0.0 0.00 0.00 0.00 46 1008.6
20260508070248 6 64 1.6 1.6 0.00 0.00 0.00 46 1008.9
20260508065744 7 113 0.0 0.0 0.00 0.00 0.00 45 1008.6
20260508065243 7 133 0.0 1.6 0.00 0.00 0.00 43 1008.8
20260508064740 7 132 0.0 1.6 0.00 0.00 0.00 43 1009.0
20260508064238 8 133 0.0 1.6 0.00 0.00 0.00 44 1008.9
20260508063735 8 103 1.6 1.6 0.00 0.00 0.00 42 1008.9
20260508063233 8 120 3.2 3.2 0.00 0.00 0.00 42 1008.8
20260508062730 8 132 4.8 8.0 0.00 0.00 0.00 41 1008.7
20260508062228 8 143 6.4 8.0 0.00 0.00 0.00 41 1008.7
20260508061724 8 128 6.4 8.0 0.00 0.00 0.00 40 1008.7
20260508061222 8 109 3.2 3.2 0.00 0.00 0.00 41 1008.9
20260508060718 8 115 4.8 4.8 0.00 0.00 0.00 41 1008.7
20260508060216 8 133 4.8 4.8 0.00 0.00 0.00 41 1008.7
20260508055711 8 124 3.2 3.2 0.00 0.00 0.00 40 1008.8
20260508055208 9 101 3.2 3.2 0.00 0.00 0.00 39 1008.8
20260508054705 9 126 4.8 4.8 0.00 0.00 0.00 40 1009.0
20260508054203 9 140 4.8 4.8 0.00 0.00 0.00 39 1008.9
20260508053659 10 138 4.8 4.8 0.00 0.00 0.00 38 1008.8
20260508053157 10 95 4.8 4.8 0.00 0.00 0.00 37 1009.3
20260508052654 10 92 6.4 8.0 0.00 0.00 0.00 37 1009.0
20260508052151 10 131 4.8 8.0 0.00 0.00 0.00 36 1009.3
20260508051647 10 98 8.0 9.7 0.00 0.00 0.00 37 1009.0
20260508051143 10 130 6.4 8.0 0.00 0.00 0.00 38 1008.8